Content
SEND FEEDBACK

Daily
Averages
Monthly
Summary
United States of America

LA MESA, CALIFORNIA


Home > North America > United States > California
Elevation: 181 meters     Latitude: 32 46N     Longitude: 117 01W

WEATHER
 
SELECT A DAY
Number of Records: 118,734;   Date Range: 1/1/95 - 12/16/14
 
SHARE

PRINT THIS DATA

[ ← Previous Day ]
WEATHER ALMANAC - 13 FEBRUARY, 2013
[ Next Day → ]
[ °F ]   °C
Weather ElementAverageHighLow
Temperature5.4 °C18 °C (3:47 pm)1 °C (4:55 am)
Dewpoint4.4 °C8 °C (8:15 pm)0 °C (7:47 pm)
Humidity95.6 %100 % (12:35 am)40 % (3:47 pm)
Barometer1023.4 hPa1025.1 hPa (12:35 am)1021 hPa (3:47 pm)
Wind Speed2.6 km/h16.7 km/h (3:47 pm)
Weather ElementAverage
Visibility16.6 km
Wind DirectionESE (106.7 °)

Weather ElementTotal
Precipitation---
Heating Degree Days8.8 (Base 18.3)
Averaged from 30 records on 13 February, 2013
WEATHER CONDITIONS BREAKOUT
WIND DIRECTION BREAKOUT
WEATHER BY HOUR - 13 FEBRUARY, 2013
[ °F ]   °C
Local TimeTemperatureDewpointHumidityBarometerVisibilityWind DirectionWind SpeedGust SpeedPrecipitationEventsConditions
12:35 AM3 °C3 °C100 %1025.1 hPa16.1 kmWest (280°)7.4 km/hClear
12:55 AM3 °C3 °C100 %1025.1 hPa16.1 kmCalmClear
1:15 AM3 °C3 °C100 %1025.1 hPa16.1 kmCalmClear
1:35 AM3 °C3 °C100 %1024.7 hPa16.1 kmCalmClear
1:55 AM3 °C3 °C100 %1024.7 hPa16.1 kmCalmClear
2:15 AM2 °C2 °C100 %1024.7 hPa16.1 kmNW (310°)5.6 km/hClear
2:35 AM2 °C2 °C100 %1024.7 hPa16.1 kmWNW (290°)7.4 km/hClear
2:55 AM2 °C2 °C100 %1024.7 hPa16.1 kmCalmClear
3:15 AM2 °C2 °C100 %1024.4 hPa16.1 kmCalmClear
3:35 AM2 °C2 °C100 %1024.4 hPa16.1 kmCalmClear
3:55 AM2 °C2 °C100 %1024.7 hPa16.1 kmCalmClear
4:15 AM2 °C2 °C100 %1024.7 hPa16.1 kmCalmClear
4:35 AM2 °C2 °C100 %1024.7 hPa16.1 kmCalmClear
4:55 AM1 °C1 °C100 %1024.7 hPa16.1 kmCalmClear
5:15 AM1 °C1 °C100 %1024.7 hPa16.1 kmWest (280°)5.6 km/hClear
3:47 PM18 °C4 °C40 %1021 hPa40.2 kmWest (280°)16.7 km/hClear
7:47 PM13 °C0 °C41 %1021.7 hPa16.1 kmCalmClear
8:15 PM9 °C8 °C93 %1022.4 hPa16.1 kmNW (310°)5.6 km/hClear
8:35 PM9 °C8 °C93 %1022 hPa16.1 kmWNW (290°)7.4 km/hClear
8:47 PM8 °C8 °C100 %1022 hPa19.3 kmCalmClear
8:55 PM8 °C8 °C100 %1022 hPa16.1 kmWNW (300°)5.6 km/hClear
9:15 PM8 °C8 °C100 %1022.4 hPa16.1 kmWest (280°)5.6 km/hClear
9:35 PM8 °C8 °C100 %1022 hPa14.5 kmCalmClear
9:55 PM8 °C8 °C100 %1022.4 hPa14.5 kmCalmClear
10:15 PM7 °C7 °C100 %1022.4 hPa16.1 kmCalmClear
10:35 PM7 °C7 °C100 %1022.4 hPa16.1 kmCalmClear
10:55 PM7 °C7 °C100 %1022.4 hPa14.5 kmWNW (290°)5.6 km/hClear
11:15 PM6 °C6 °C100 %1022.7 hPa12.9 kmCalmClear
11:35 PM6 °C6 °C100 %1022.4 hPa14.5 kmCalmClear
11:55 PM6 °C6 °C100 %1022.4 hPa12.9 kmWNW (290°)5.6 km/hClear
Hourly data recorded from KSEE, located 0 kilometers away from La Mesa, California







STORIES FROM OUR PARTNERS